Location: Bakov nad Jizerou
(50.4784°N, 14.9394°E)
Time: 19:34:11
(UTC+00:00)

Cosmos 1703 - Pass Details

Date: 27 October 2021
Orbit: 521 x 539 km, 82.5° (Epoch: 01 December)

Event Time Altitude Azimuth Distance (km) Brightness Sun altitude
Rises 04:37:57 0° 163° (SSE) 2,686 7.2 -10.9°
Reaches altitude 10° 04:40:15 10° 153° (SSE) 1,799 6.4 -10.5°
Maximum altitude 04:43:44 30° 91° (E) 978 5.5 -9.9°
Drops below altitude 10° 04:47:14 10° 29° (NNE) 1,807 6.2 -9.4°
Sets 04:49:34 0° 19° (NNE) 2,702 7.0 -9.0°
